TimeEDT,TemperatureF,Dew PointF,Humidity,Sea Level PressureIn,VisibilityMPH,Wind Direction,Wind SpeedMPH,Gust SpeedMPH,PrecipitationIn,Events,Conditions,WindDirDegrees,DateUTC
12:53 AM,51.1,39.0,63,30.17,10.0,ESE,5.8,-,N/A,,Overcast,120,2013-04-29 04:53:00
1:53 AM,51.1,41.0,68,30.17,10.0,East,3.5,-,N/A,,Overcast,90,2013-04-29 05:53:00
2:53 AM,50.0,42.1,74,30.16,10.0,ESE,4.6,-,0.01,Rain,Light Rain,110,2013-04-29 06:53:00
3:53 AM,50.0,44.1,80,30.14,10.0,SE,5.8,-,0.00,,Overcast,130,2013-04-29 07:53:00
4:53 AM,50.0,46.0,86,30.14,6.0,SE,6.9,-,0.00,,Overcast,130,2013-04-29 08:53:00
5:46 AM,50.0,48.2,94,30.13,2.5,East,6.9,-,0.01,Rain,Light Rain,100,2013-04-29 09:46:00
5:53 AM,50.0,48.0,93,30.13,2.0,East,5.8,-,0.01,Rain,Light Rain,100,2013-04-29 09:53:00
6:02 AM,50.0,48.2,94,30.13,2.0,East,6.9,-,0.00,Rain,Light Rain,90,2013-04-29 10:02:00
6:20 AM,50.0,48.2,94,30.13,2.0,East,8.1,-,0.01,Rain,Light Rain,100,2013-04-29 10:20:00
6:31 AM,51.8,48.2,88,30.13,1.8,East,6.9,-,0.01,Rain,Light Rain,100,2013-04-29 10:31:00
6:53 AM,51.1,48.9,92,30.14,1.2,ESE,6.9,-,0.03,Rain,Light Rain,110,2013-04-29 10:53:00
7:03 AM,51.8,48.2,88,30.14,1.2,East,6.9,-,0.00,Rain,Light Rain,100,2013-04-29 11:03:00
7:30 AM,51.8,48.2,88,30.14,0.8,East,5.8,-,0.02,Rain,Light Rain,90,2013-04-29 11:30:00
7:53 AM,52.0,50.0,93,30.14,1.0,ESE,6.9,-,0.03,Rain,Light Rain,110,2013-04-29 11:53:00
8:53 AM,53.1,51.1,93,30.14,1.2,ESE,6.9,-,0.04,Rain,Light Rain,110,2013-04-29 12:53:00
9:07 AM,53.6,51.8,94,30.14,2.5,ESE,6.9,-,0.01,Rain,Light Rain,120,2013-04-29 13:07:00
9:16 AM,53.6,51.8,94,30.14,1.8,SE,8.1,-,0.01,Rain,Light Rain,130,2013-04-29 13:16:00
9:32 AM,53.6,51.8,94,30.14,2.5,ESE,8.1,-,0.01,Rain,Light Rain,120,2013-04-29 13:32:00
9:53 AM,53.1,51.1,93,30.14,1.5,ESE,9.2,-,0.05,Rain,Rain,120,2013-04-29 13:53:00
10:18 AM,53.6,51.8,94,30.13,1.8,ESE,6.9,-,0.04,Rain,Rain,110,2013-04-29 14:18:00
10:26 AM,53.6,51.8,94,30.13,2.0,ESE,6.9,-,0.05,Rain,Rain,110,2013-04-29 14:26:00
10:38 AM,53.6,51.8,94,30.13,2.0,East,6.9,-,0.07,Rain,Rain,100,2013-04-29 14:38:00
10:53 AM,54.0,52.0,93,30.13,2.5,ESE,9.2,-,0.09,Rain,Light Rain,110,2013-04-29 14:53:00
11:09 AM,53.6,51.8,94,30.12,1.8,ESE,8.1,-,0.02,Rain,Rain,110,2013-04-29 15:09:00
11:19 AM,55.4,51.8,88,30.12,2.0,ESE,10.4,-,0.02,Rain,Light Rain,110,2013-04-29 15:19:00
11:46 AM,55.4,53.6,94,30.12,1.5,ESE,9.2,-,0.03,Rain,Light Rain,110,2013-04-29 15:46:00
11:53 AM,55.0,53.1,93,30.12,1.8,East,10.4,-,0.04,Rain,Light Rain,100,2013-04-29 15:53:00
12:14 PM,55.4,53.6,94,30.11,2.0,ESE,9.2,-,0.00,Rain,Light Rain,110,2013-04-29 16:14:00
12:53 PM,55.9,54.0,93,30.11,2.5,ESE,6.9,-,0.01,Rain,Light Rain,110,2013-04-29 16:53:00
1:10 PM,55.4,53.6,94,30.10,1.8,ESE,6.9,-,0.00,Rain,Light Rain,110,2013-04-29 17:10:00
1:53 PM,57.0,55.0,93,30.10,1.2,ESE,6.9,-,0.03,Rain,Light Rain,120,2013-04-29 17:53:00
2:10 PM,57.2,55.4,94,30.10,3.0,SSE,6.9,-,0.00,Rain,Light Rain,150,2013-04-29 18:10:00
2:36 PM,57.2,55.4,94,30.10,3.0,SSE,6.9,-,0.00,Rain,Light Rain,150,2013-04-29 18:36:00
2:39 PM,57.2,55.4,94,30.10,2.5,SSE,6.9,-,0.00,Rain,Light Rain,150,2013-04-29 18:39:00
2:53 PM,57.0,55.0,93,30.09,2.5,SSE,6.9,-,0.00,Rain,Light Rain,150,2013-04-29 18:53:00
3:13 PM,57.2,55.4,94,30.09,1.5,SSE,10.4,-,0.01,Rain,Light Rain,150,2013-04-29 19:13:00
3:23 PM,57.2,55.4,94,30.09,2.5,SSE,8.1,-,0.01,,Overcast,160,2013-04-29 19:23:00
3:48 PM,57.2,55.4,94,30.09,5.0,SSE,6.9,-,0.01,,Overcast,160,2013-04-29 19:48:00
3:53 PM,57.0,55.0,93,30.09,3.0,SSE,8.1,-,0.01,,Overcast,150,2013-04-29 19:53:00
3:56 PM,57.2,55.4,94,30.09,1.8,SSE,8.1,-,0.00,Rain,Light Rain,150,2013-04-29 19:56:00
4:12 PM,57.2,55.4,94,30.09,3.0,South,8.1,-,0.01,Rain,Light Rain,170,2013-04-29 20:12:00
4:20 PM,57.2,53.6,88,30.09,8.0,SSE,8.1,-,0.01,,Overcast,150,2013-04-29 20:20:00
4:51 PM,57.2,55.4,94,30.09,5.0,SE,4.6,-,0.01,,Overcast,140,2013-04-29 20:51:00
4:53 PM,57.0,55.0,93,30.09,5.0,SE,5.8,-,0.01,,Overcast,130,2013-04-29 20:53:00
4:55 PM,57.2,55.4,94,30.09,5.0,SE,6.9,-,N/A,,Overcast,130,2013-04-29 20:55:00
5:02 PM,57.2,53.6,88,30.09,4.0,SE,8.1,-,N/A,,Overcast,130,2013-04-29 21:02:00
5:09 PM,57.2,53.6,88,30.09,2.5,SSE,11.5,16.1,0.00,Rain,Light Rain,150,2013-04-29 21:09:00
5:16 PM,57.2,53.6,88,30.09,3.0,SSE,12.7,18.4,0.00,,Overcast,160,2013-04-29 21:16:00
5:24 PM,57.2,53.6,88,30.09,2.5,SSE,10.4,-,0.00,Rain,Light Rain,160,2013-04-29 21:24:00
5:38 PM,55.4,53.6,94,30.09,2.5,SE,9.2,-,0.00,,Overcast,140,2013-04-29 21:38:00
5:46 PM,55.4,53.6,94,30.10,5.0,SSE,8.1,-,0.00,,Overcast,150,2013-04-29 21:46:00
5:53 PM,55.9,54.0,93,30.10,6.0,SE,9.2,-,0.00,,Overcast,140,2013-04-29 21:53:00
6:15 PM,55.4,53.6,94,30.10,2.5,SE,9.2,-,N/A,,Overcast,140,2013-04-29 22:15:00
6:25 PM,55.4,53.6,94,30.10,1.5,SE,10.4,-,0.00,Rain,Light Rain,130,2013-04-29 22:25:00
6:33 PM,55.4,53.6,94,30.10,2.5,SE,9.2,-,0.00,,Overcast,130,2013-04-29 22:33:00
6:42 PM,55.4,53.6,94,30.10,3.0,SE,9.2,-,0.00,,Overcast,130,2013-04-29 22:42:00
6:53 PM,55.9,53.1,90,30.10,6.0,SE,9.2,-,0.00,,Overcast,130,2013-04-29 22:53:00
7:14 PM,55.4,53.6,94,30.10,7.0,ESE,9.2,-,N/A,,Overcast,120,2013-04-29 23:14:00
7:51 PM,55.4,51.8,88,30.11,10.0,ESE,8.1,-,N/A,,Overcast,120,2013-04-29 23:51:00
7:53 PM,55.9,52.0,87,30.12,10.0,ESE,6.9,-,N/A,,Overcast,120,2013-04-29 23:53:00
8:06 PM,55.4,51.8,88,30.11,10.0,ESE,9.2,-,N/A,,Overcast,110,2013-04-30 00:06:00
8:53 PM,55.0,52.0,89,30.13,10.0,SE,12.7,-,N/A,,Overcast,140,2013-04-30 00:53:00
9:53 PM,55.0,52.0,89,30.15,8.0,ESE,8.1,-,N/A,,Overcast,120,2013-04-30 01:53:00
10:31 PM,53.6,51.8,94,30.15,4.0,ESE,5.8,-,N/A,,Overcast,120,2013-04-30 02:31:00
10:53 PM,54.0,52.0,93,30.15,5.0,ESE,8.1,-,N/A,,Overcast,110,2013-04-30 02:53:00
11:53 PM,54.0,52.0,93,30.15,8.0,ESE,9.2,-,0.00,,Overcast,110,2013-04-30 03:53:00